This demonstration page uses our WeatherBlox Daily Observations layout. Learn more.

Left ArrowRight Arrow

Hourly Observations for March 12, 2020

Temp ( °F °C ) Dew Point ( °F °C ) Humidity (%) Winds ( mph kmh ) Pressure ( in mb ) Visibility ( mi km ) Precip ( " mm )
12:10 am 00:10 Cloudy 44 6.5 42 5.7 95 95 N N/A 30.04 1017 7 11 N/A
12:35 am 00:35 Cloudy 44 6.5 42 5.6 94 94 N N/A 30.04 1017 7 11 N/A
12:50 am 00:50 Cloudy 44 6.5 42 5.5 93 93 N N/A 30.03 1017 7 11 N/A
1:15 am 01:15 Cloudy 44 6.5 42 5.7 95 95 N N/A 30.02 1017 7 11 N/A
1:35 am 01:35 Cloudy 44 6.5 42 5.7 95 95 N N/A 30.02 1017 5 8 N/A
1:55 am 01:55 Cloudy 44 6.5 42 5.7 95 95 N N/A 30.02 1017 5 8 N/A
2:15 am 02:15 Cloudy 44 6.5 42 5.8 95 95 N N/A 30.02 1017 5 8 N/A
2:35 am 02:35 Cloudy 44 6.5 42 5.7 95 95 N N/A 30.02 1017 5 8 N/A
2:55 am 02:55 Cloudy 44 6.5 42 5.7 95 95 N N/A 30.02 1017 5 8 N/A
3:15 am 03:15 Cloudy 44 6.5 42 5.7 95 95 N N/A 30.02 1017 5 8 N/A
3:35 am 03:35 Cloudy 44 6.5 42 5.7 95 95 N N/A 30.02 1017 5 8 N/A
3:55 am 03:55 Cloudy 44 6.4 42 5.8 96 96 N N/A 30.00 1016 5 8 N/A
4:15 am 04:15 Cloudy 44 6.5 42 5.7 95 95 N N/A 30.00 1016 4 6 N/A
4:35 am 04:35 Cloudy 44 6.5 42 5.7 95 95 N N/A 29.98 1015 4 6 N/A
4:55 am 04:55 Cloudy 44 6.4 42 5.6 95 95 N N/A 29.97 1015 4 6 N/A
5:15 am 05:15 Cloudy 43 6.2 42 5.6 96 96 SE 3 6 29.97 1015 4 6 N/A
5:35 am 05:35 Cloudy 43 6.1 42 5.5 96 96 ESE 3 6 29.97 1015 4 6 N/A
5:55 am 05:55 Cloudy 43 6.1 42 5.5 96 96 N N/A 29.97 1015 5 8 N/A
6:15 am 06:15 Cloudy 43 6 41 5.2 95 95 ESE 3 6 29.97 1015 5 8 N/A
6:55 am 06:55 Partly Cloudy 41 4.9 40 4.6 98 98 NE 3 6 29.99 1015 4 6 N/A
9:00 am 09:00 Partly Cloudy 43 6 42 5.5 97 97 N N/A 29.95 1014 3 5 N/A
9:15 am 09:15 Partly Cloudy 44 6.4 42 5.6 95 95 ESE 6 9 29.94 1014 4 6 N/A
9:35 am 09:35 Sunny 44 6.6 42 5.6 93 93 ESE 5 7 29.95 1014 5 8 N/A
9:55 am 09:55 Sunny 46 7.8 43 6.3 90 90 SE 6 9 29.94 1014 5 8 N/A
10:15 am 10:15 Sunny 46 7.7 43 6 89 89 SE 7 11 29.94 1014 7 11 N/A
10:35 am 10:35 Sunny 47 8.2 44 6.5 89 89 SE 5 7 29.94 1014 7 11 N/A
10:55 am 10:55 Sunny 47 8.4 44 6.5 88 88 SE 7 11 29.93 1013 7 11 N/A
11:15 am 11:15 Sunny 50 9.9 45 7.3 84 84 SE 9 15 29.91 1013 10 16 N/A
11:35 am 11:35 Sunny 51 10.7 46 7.6 81 81 SSE 10 17 29.90 1012 10 16 N/A
11:55 am 11:55 Sunny 53 11.6 47 8.1 79 79 SSE 8 13 29.89 1012 10 16 N/A
12:15 pm 12:15 Sunny 54 12.4 47 8.6 78 78 SSE 10 17 29.87 1012 10 16 N/A
12:35 pm 12:35 Sunny 56 13.1 48 9.1 77 77 SSE 10 17 29.86 1011 10 16 N/A
12:55 pm 12:55 Partly Cloudy 57 13.7 49 9.6 76 76 S 13 20 29.86 1011 10 16 N/A
1:15 pm 13:15 Partly Cloudy 57 13.7 49 9.3 75 75 S 12 19 29.86 1011 10 16 N/A
1:35 pm 13:35 Partly Cloudy 57 14 49 9.2 73 73 S 13 20 29.85 1011 10 16 N/A
1:55 pm 13:55 Partly Cloudy 57 14 48 9 72 72 S 12 19 29.84 1010 10 16 N/A
2:15 pm 14:15 Sunny 58 14.2 48 9 71 71 SSE 10 17 29.83 1010 10 16 N/A
2:35 pm 14:35 Sunny 57 13.9 48 8.9 72 72 SSE 9 15 29.80 1009 10 16 N/A
2:55 pm 14:55 Partly Cloudy 56 13.6 48 8.9 73 73 SSE 8 13 29.77 1008 10 16 N/A
3:15 pm 15:15 Cloudy 57 13.7 48 9 73 73 SSE 7 11 29.76 1008 10 16 N/A
3:55 pm 15:55 Cloudy 55 12.6 50 10.2 85 85 SSE 8 13 29.76 1008 10 16 N/A
4:15 pm 16:15 Cloudy 56 13.1 51 10.3 83 83 SSE 7 11 29.75 1007 10 16 N/A
4:50 pm 16:50 Cloudy N/A N/A N/A S 14 22 N/A 10 16 N/A
5:20 pm 17:20 Cloudy 54 12.2 51 10.5 89 89 SSE 20 31 29.65 1004 7 11 N/A
5:55 pm 17:55 Cloudy N/A N/A N/A SSE 13 20 N/A 10 16 N/A
6:15 pm 18:15 Cloudy 56 13.1 52 11 87 87 SSE 10 17 29.68 1005 10 16 N/A
6:35 pm 18:35 Cloudy 55 13 53 11.4 90 90 SSE 9 15 29.67 1005 5 8 N/A
6:55 pm 18:55 Cloudy 56 13.1 53 11.5 90 90 SSE 8 13 29.65 1004 10 16 N/A
7:15 pm 19:15 Cloudy 55 13 53 11.5 91 91 SSE 9 15 29.65 1004 10 16 N/A
7:35 pm 19:35 Cloudy 56 13.1 53 11.7 91 91 SSE 12 19 29.63 1003 10 16 N/A
9:50 pm 21:50 Cloudy N/A N/A N/A SW 6 9 N/A 4 6 N/A
10:15 pm 22:15 Cloudy N/A N/A N/A SW 9 15 N/A 4 6 N/A
10:35 pm 22:35 Cloudy 57 14 57 13.7 98 98 WSW 8 13 29.66 1004 3 5 N/A
10:55 pm 22:55 Cloudy 57 14.1 57 14 99 99 WSW 12 19 29.67 1005 3 4 N/A
11:15 pm 23:15 Cloudy 57 13.9 56 13.6 98 98 W 13 20 29.69 1005 4 6 N/A
11:35 pm 23:35 Cloudy 56 13.6 56 13.2 97 97 W 15 24 29.70 1006 10 16 N/A
11:55 pm 23:55 Cloudy 56 13.5 55 12.9 96 96 WNW 14 22 29.72 1006 10 16 N/A

Powered by AerisWeather